"2022-10-07 00:01:00",3146085,3.484,173.6003,2.470937,0.3386797,4.29,0,1.802667,168.3233,6.113294,0.247345,2.32,0,-999,0,7.68,92,7.661,7.679,0.2,0,0,7.049,13.22,0.2,102.8072,3.284,3.286,3.283,100,0,0,0,332.1,101.1,101.1
"2022-10-07 00:02:00",3146086,3.604667,174,2.732334,0.1995617,3.99,0,1.996,167.9361,4.87416,0.1693438,2.31,0,-999,0,7.747,92.1,7.754,7.767,0.2,0,0,7.062,13.25,0.2,102.8065,3.286,3.286,3.285,100,0,0,0,332.1,101.1,101.1
"2022-10-07 00:03:00",3146087,3.382667,175.4661,2.801118,0.1701946,3.71,0,1.97,172.8662,3.756419,0.1658111,2.25,0,-999,0,7.853,91.8,7.826,7.847,0.2,0,0,7.071,13.22,0.2,102.8065,3.282,3.284,3.28,100,0,0,0,332.1,101.1,101.1
"2022-10-07 00:04:00",3146088,3.360667,175.3334,2.958821,0.1682247,3.57,0,1.769333,171.333,3.823257,0.2762719,2.37,0,-999,0,7.9,91.6,7.871,7.896,0.2,0,0,7.071,13.25,0.2,102.8053,3.283,3.283,3.28,100,0,0,0,332.1,101.1,101.1
"2022-10-07 00:05:00",3146089,3.252667,175.0006,3.539881,0.1771804,3.54,0,1.667333,171.4639,5.300336,0.1585125,1.98,0,-999,0,7.907,91.6,7.88,7.916,0.2,0,0,7.071,13.23,0.2,102.8073,3.282,3.284,3.28,100,0,0,0,332.1,101.1,101.1
"2022-10-07 00:06:00",3146090,2.988,172.8664,3.094718,0.2492709,3.74,0,1.647333,167.5297,4.895824,0.1537299,1.85,0,-999,0,7.9,91.5,7.872,7.904,0.2,0,0,7.094,13.23,0.2,102.805,3.281,3.282,3.279,100,0,0,0,332.1,101.1,101.1
"2022-10-07 00:07:00",3146091,3.002666,173.4668,2.124688,0.182956,3.41,0,1.514,165.7299,4.737075,0.1527001,1.91,0,-999,0,7.893,91.3,7.816,7.859,0.2,0,0,7.114,13.22,0.2,102.808,3.28,3.28,3.278,100,0,0,0,332.1,101.1,101.1
"2022-10-07 00:08:00",3146092,3.022,175.2673,3.129591,0.2635197,3.45,0,1.483333,168.5985,5.557241,0.1247753,1.68,0,-999,0,7.8,91.3,7.798,7.829,0.2,0,0,7.114,13.24,0.2,102.8064,3.278,3.281,3.275,100,0,0,0,332.1,101.1,101.1
"2022-10-07 00:09:00",3146093,3.145333,176.6661,3.025586,0.2299526,3.55,0,1.488667,169.8666,3.57452,0.1772707,1.69,0,-999,0,7.8,91.2,7.798,7.828,0.2,0,0,7.114,13.24,0.2,102.8073,3.276,3.28,3.276,100,0,0,0,332.1,101.1,101.1
"2022-10-07 00:10:00",3146094,3,178.3998,2.550459,0.2409426,3.52,0,1.431333,175.8684,5.723099,0.1447235,1.71,0,-999,0,7.8,91.1,7.793,7.826,0.2,0,0,7.114,13.21,0.2,102.8081,3.274,3.278,3.273,100,0,0,0,332.1,101.1,101.1
"2022-10-07 00:11:00",3146095,2.960666,183.9333,3.213372,0.1473529,3.23,0,1.400667,185.0018,3.94738,0.1433628,1.72,0,-999,0,7.8,91.2,7.801,7.829,0.2,0,0,7.114,13.23,0.2,102.8038,3.273,3.275,3.273,100,0,0,0,332.1,101.1,101.1
"2022-10-07 00:12:00",3146096,3.037333,183.666,2.440259,0.1138693,3.25,0,1.476667,184.2628,6.077406,0.2090189,1.85,0,-999,0,7.8,91.1,7.799,7.824,0.2,0,0,7.114,13.23,0.2,102.8033,3.273,3.275,3.271,100,0,0,0,332.1,101.1,101.1
"2022-10-07 00:13:00",3146097,3.287333,184.1334,2.445752,0.2415358,3.76,0,1.718667,179.5339,4.841219,0.1853597,2.01,0,-999,0,7.8,91.2,7.781,7.805,0.2,0,0,7.114,13.23,0.2,102.801,3.273,3.273,3.271,100,0,0,0,332.1,101.1,101.1
"2022-10-07 00:14:00",3146098,3.791333,185.6667,2.412727,0.198557,4.16,0,1.852667,184.7299,3.373246,0.2308092,2.4,0,-999,0,7.8,91.2,7.802,7.828,0.2,0,0,7.114,13.24,0.2,102.8024,3.271,3.273,3.269,100,0,0,0,332.1,101.1,101.1
"2022-10-07 00:15:00",3146099,3.606,183.4666,2.124781,0.2434146,3.99,0,1.783333,181.2693,3.766255,0.2546545,2.38,0,-999,0,7.807,91.3,7.815,7.847,0.2,0,0,7.122,13.24,0.2,102.8006,3.269,3.273,3.269,100,0,0,0,332.1,101.1,101.1
"2022-10-07 00:16:00",3146100,3.521333,184.3973,3.070388,0.1635386,3.76,0,2.002,179.1989,4.533068,0.1425108,2.37,0,-999,0,7.8,91.2,7.808,7.834,0.2,0,0,7.135,13.24,0.2,102.7999,3.27,3.271,3.268,100,0,0,0,332.1,101.1,101.1
"2022-10-07 00:17:00",3146101,3.377333,181.7995,2.687934,0.2731414,3.8,0,1.884667,179.5318,5.324708,0.17576,2.25,0,-999,0,7.807,91.3,7.828,7.846,0.2,0,0,7.137,13.24,0.2,102.8023,3.269,3.271,3.269,100,0,0,0,332.1,101.1,101.1
"2022-10-07 00:18:00",3146102,3.517333,181.8,2.039466,0.2137122,3.88,0,1.854666,179.2668,7.469172,0.2158971,2.47,0,-999,0,7.88,91.3,7.86,7.886,0.2,0,0,7.137,13.21,0.2,102.8003,3.265,3.268,3.265,100,0,0,0,332.1,101.1,101.1
"2022-10-07 00:19:00",3146103,3.757334,183.2666,3.086566,0.2713784,4.25,0,1.866667,177.7333,3.696084,0.1544309,2.27,0,-999,0,7.887,91.5,7.877,7.901,0.2,0,0,7.143,13.24,0.2,102.8033,3.267,3.267,3.265,100,0,0,0,332.1,101.1,101.1
"2022-10-07 00:20:00",3146104,3.642667,182.9335,2.515378,0.1771051,3.87,0,1.885333,176.066,3.767167,0.1786567,2.24,0,-999,0,7.9,91.6,7.922,7.937,0.2,0,0,7.156,13.22,0.2,102.7985,3.263,3.267,3.263,100,0,0,0,332.1,101.1,101.1
"2022-10-07 00:21:00",3146105,3.725333,185.0668,2.669461,0.2226167,4.24,0,2.015333,175.8685,3.945739,0.2398017,2.52,0,-999,0,7.92,91.5,7.956,7.98,0.2,0,0,7.159,13.21,0.2,102.7973,3.261,3.265,3.261,100,0,0,0,332.1,101.1,101.1
"2022-10-07 00:22:00",3146106,3.446667,183.6669,2.467406,0.2397684,3.79,0,1.986667,175.5329,2.41812,0.1234864,2.21,0,-999,0,7.96,91.5,7.963,7.988,0.2,0,0,7.159,13.24,0.2,102.7969,3.265,3.265,3.261,100,0,0,0,332.1,101.1,101.1
"2022-10-07 00:23:00",3146107,3.489333,185.4692,3.178705,0.2710342,4.12,0,1.925333,178.7337,3.766881,0.1527467,2.12,0,-999,0,8,91.3,7.97,7.989,0.2,0,0,7.176,13.22,0.2,102.7989,3.261,3.265,3.261,100,0,0,0,332.1,101.1,101.1
"2022-10-07 00:24:00",3146108,3.523334,183.7331,2.48895,0.2522874,3.81,0,2.137333,175.7339,2.998705,0.176275,2.48,0,-999,0,7.953,91.1,7.948,7.977,0.2,0,0,7.18,13.22,0.2,102.796,3.259,3.262,3.259,100,0,0,0,332.1,101.1,101.1
"2022-10-07 00:25:00",3146109,3.683333,185.2663,2.462,0.219018,4.07,0,2.05,176.2014,4.035439,0.2809508,2.61,0,-999,0,7.9,91.2,7.927,7.951,0.2,0,0,7.181,13.24,0.2,102.7939,3.26,3.261,3.257,100,0,0,0,332.1,101.1,101.1
"2022-10-07 00:26:00",3146110,3.620667,182.2027,3.368882,0.1644168,3.83,0,2.110667,170.3255,6.484518,0.1972973,2.43,0,-999,0,7.9,91.2,7.899,7.914,0.2,0,0,7.201,13.22,0.2,102.7876,3.256,3.261,3.256,100,0,0,0,332.1,101.1,101.1
"2022-10-07 00:27:00",3146111,3.514667,181.9327,2.69456,0.2584278,4.22,0,1.986,168.9237,5.77522,0.2062943,2.43,0,-999,0,7.887,91.4,7.876,7.897,0.2,0,0,7.202,13.23,0.2,102.7911,3.256,3.257,3.255,100,0,0,0,332.1,101.1,101.1
"2022-10-07 00:28:00",3146112,3.412667,180.1988,2.855692,0.2678673,3.91,0,1.91,170.3333,2.240893,0.1819157,2.22,0,-999,0,7.813,91.5,7.831,7.84,0.2,0,0,7.202,13.23,0.2,102.7893,3.254,3.259,3.254,100,0,0,0,332.1,101.1,101.1
"2022-10-07 00:29:00",3146113,3.223333,179.6671,2.086834,0.1337494,3.51,0,1.862667,170.6013,3.554621,0.1450272,2.06,0,-999,0,7.8,91.5,7.817,7.836,0.2,0,0,7.205,13.24,0.2,102.789,3.253,3.256,3.253,100,0,0,0,332.1,101.1,101.1
"2022-10-07 00:30:00",3146114,3.293333,182.6001,2.184639,0.1683119,3.55,0,1.802667,172.6649,5.312434,0.270246,2.47,0,-999,0,7.8,91.3,7.803,7.829,0.2,0,0,7.222,13.24,0.2,102.7916,3.254,3.254,3.252,100,0,0,0,332.1,101.1,101.1
"2022-10-07 00:31:00",3146115,3.36,182.6669,1.738251,0.1815122,3.68,0,1.715333,170.6675,2.723893,0.2054221,2.17,0,-999,0,7.8,91.4,7.803,7.817,0.2,0,0,7.225,13.21,0.2,102.7879,3.25,3.252,3.249,100,0,0,0,332.1,101.1,101.1
"2022-10-07 00:32:00",3146116,3.378,181.8663,3.996223,0.2191559,3.79,0,1.779333,172.1339,3.878314,0.1502649,1.99,0,-999,0,7.8,91.4,7.798,7.809,0.2,0,0,7.225,13.23,0.2,102.787,3.246,3.25,3.246,100,0,0,0,332.1,101.1,101.1
"2022-10-07 00:33:00",3146117,3.422,179.2004,2.196798,0.1679762,3.7,0,1.853333,168.2661,2.694378,0.157466,2.08,0,-999,0,7.793,91.5,7.797,7.793,0.2,0,0,7.241,13.24,0.2,102.7871,3.248,3.248,3.246,100,0,0,0,332.1,101.1,101.1
"2022-10-07 00:34:00",3146118,3.237333,178.3347,3.046477,0.1963829,3.51,0,1.804667,163.667,3.069079,0.2438542,2.28,0,-999,0,7.78,91.7,7.774,7.774,0.2,0,0,7.245,13.22,0.2,102.7878,3.245,3.248,3.244,100,0,0,0,332.1,101.1,101.1
"2022-10-07 00:35:00",3146119,3.239333,177.3336,2.385,0.2064128,3.66,0,1.666,159.9998,2.683044,0.187645,2.07,0,-999,0,7.7,91.8,7.698,7.718,0.2,0,0,7.245,13.24,0.2,102.7828,3.246,3.247,3.244,100,0,0,0,332.1,101.1,101.1
"2022-10-07 00:36:00",3146120,3.062,177.6001,1.854657,0.2221171,3.43,0,1.666,159.3986,3.978742,0.09520502,1.81,0,-999,0,7.607,91.8,7.657,7.677,0.2,0,0,7.245,13.22,0.2,102.78,3.244,3.246,3.242,100,0,0,0,332.1,101.1,101.1
"2022-10-07 00:37:00",3146121,2.830667,175.2008,2.785049,0.1687786,3.15,0,1.732667,157,2.032829,0.06557099,1.86,0,-999,0,7.587,91.9,7.628,7.636,0.2,0,0,7.245,13.24,0.2,102.7811,3.244,3.246,3.242,100,0,0,0,332.1,101.1,101.1
"2022-10-07 00:38:00",3146122,2.841333,174.5999,2.274255,0.1546551,3.08,0,1.724667,155.8,1.423241,0.05725576,1.82,0,-999,0,7.5,92.1,7.553,7.557,0.2,0,0,7.245,13.24,0.2,102.7832,3.242,3.246,3.242,100,0,0,0,332.1,101.1,101.1
"2022-10-07 00:39:00",3146123,2.828667,173.4664,2.155985,0.2398296,3.42,0,1.710667,156.8,2.103799,0.1109635,1.97,0,-999,0,7.4,92.1,7.497,7.505,0.2,0,0,7.245,13.25,0.2,102.7828,3.242,3.244,3.239,100,0,0,0,332.1,101.1,101.1
"2022-10-07 00:40:00",3146124,2.769333,173.1326,2.155666,0.1212417,2.96,0,1.612,152.2676,3.042774,0.1044478,1.75,0,-999,0,7.34,92.5,7.43,7.413,0.2,0,0,7.245,13.23,0.2,102.783,3.242,3.242,3.239,100,0,0,0,332.1,101.1,101.1
"2022-10-07 00:41:00",3146125,2.705333,173.4001,2.727201,0.1718475,3.2,0,1.273333,152.133,3.756811,0.07345445,1.43,0,-999,0,7.293,92.7,7.368,7.35,0.2,0,0,7.245,13.25,0.2,102.7805,3.242,3.242,3.241,100,0,0,0,332.1,101.1,101.1
"2022-10-07 00:42:00",3146126,2.463333,172.9333,1.691671,0.1109154,2.68,0,1.15,148.4003,4.191496,0.09811556,1.41,0,-999,0,7.2,92.9,7.33,7.285,0.2,0,0,7.242,13.25,0.2,102.7769,3.242,3.242,3.241,100,0,0,0,332.1,101.1,101.1
"2022-10-07 00:43:00",3146127,2.358,172.1344,2.848235,0.08447485,2.52,0,1.040667,147.5968,4.86689,0.08827733,1.18,0,-999,0,7.167,92.9,7.273,7.218,0.2,0,0,7.226,13.25,0.2,102.7775,3.242,3.242,3.241,100,0,0,0,332.1,101.1,101.1
"2022-10-07 00:44:00",3146128,2.224,173.3987,4.158445,0.1593654,2.57,0,0.8666667,142.7283,4.889311,0.05081557,0.97,0,-999,0,7.1,93,7.261,7.211,0.2,0,0,7.225,13.25,0.2,102.7759,3.239,3.242,3.239,100,0,0,0,332.1,101.1,101.1
"2022-10-07 00:45:00",3146129,1.942667,171.2663,2.999032,0.2217947,2.22,0,0.8533334,142.9987,5.400307,0.05872724,0.95,0,-999,0,7.1,93,7.25,7.198,0.2,0,0,7.216,13.24,0.2,102.7747,3.242,3.242,3.237,100,0,0,0,332.1,101.1,101.1
"2022-10-07 00:46:00",3146130,2.036,173.3994,4.284551,0.1794362,2.41,0,0.934,137.8667,2.526259,0.07631513,1.04,0,-999,0,7.1,93.1,7.205,7.156,0.2,0,0,7.202,13.23,0.2,102.7717,3.239,3.242,3.237,100,0,0,0,332.1,101.1,101.1
"2022-10-07 00:47:00",3146131,2.05,178.333,3.717448,0.1377921,2.29,0,0.9919999,140.4646,3.498205,0.06177378,1.12,0,-999,0,7.1,93.2,7.229,7.179,0.2,0,0,7.202,13.24,0.2,102.7694,3.242,3.242,3.237,100,0,0,0,332.1,101.1,101.1
"2022-10-07 00:48:00",3146132,2.162667,179.2607,4.693746,0.2144906,2.67,0,1.023333,145.3291,4.235368,0.05985167,1.13,0,-999,0,7.1,93.5,7.239,7.179,0.2,0,0,7.187,13.24,0.2,102.7696,3.242,3.242,3.238,100,0,0,0,332.1,101.1,101.1
"2022-10-07 00:49:00",3146133,2.212,178.6018,4.238775,0.2858951,2.81,0,1.03,142.2632,3.565011,0.04501851,1.11,0,-999,0,7.067,93.4,7.177,7.115,0.2,0,0,7.18,13.25,0.2,102.768,3.242,3.244,3.242,100,0,0,0,332.1,101.1,101.1
"2022-10-07 00:50:00",3146134,2.184666,177.9323,4.999137,0.1875763,2.55,0,1.108667,141.7937,4.273463,0.06510162,1.23,0,-999,0,6.98,93.2,7.081,7.043,0.2,0,0,7.167,13.24,0.2,102.7676,3.242,3.244,3.242,100,0,0,0,332.1,101.1,101.1
"2022-10-07 00:51:00",3146135,2.135334,177.2003,3.505713,0.1285751,2.43,0,1.234667,139.9331,2.293766,0.04869861,1.34,0,-999,0,6.9,93,7.041,6.994,0.2,0,0,7.159,13.24,0.2,102.769,3.242,3.244,3.241,100,0,0,0,332.1,101.1,101.1
"2022-10-07 00:52:00",3146136,2.35,174.5998,3.754067,0.1183779,2.54,0,1.423333,142.7091,6.110388,0.1096459,1.72,0,-999,0,6.953,93.5,7.083,7.048,0.2,0,0,7.143,13.24,0.2,102.7689,3.244,3.244,3.242,100,0,0,0,332.1,101.1,101.1
"2022-10-07 00:53:00",3146137,2.44,176.0014,5.536551,0.1874033,2.98,0,1.490667,140.7972,3.206683,0.1270415,1.7,0,-999,0,6.967,93.7,7.091,7.051,0.2,0,0,7.137,13.23,0.2,102.7695,3.243,3.246,3.243,100,0,0,0,332.1,101.1,101.1
"2022-10-07 00:54:00",3146138,2.282666,168.398,4.423458,0.1736843,2.62,0,1.605333,140.0665,2.204808,0.06810451,1.76,0,-999,0,6.987,93.7,7.091,7.061,0.2,0,0,7.119,13.24,0.2,102.7713,3.246,3.246,3.242,100,0,0,0,332.1,101.1,101.1
"2022-10-07 00:55:00",3146139,2.421333,166.7986,3.952501,0.139421,2.74,0,1.618,143.0664,2.048186,0.05810333,1.68,0,-999,0,6.993,94.1,7.099,7.057,0.2,0,0,7.114,13.24,0.2,102.7668,3.248,3.248,3.244,100,0,0,0,332.1,101.1,101.1
"2022-10-07 00:56:00",3146140,2.427333,166.8665,2.777191,0.1260405,2.62,0,1.463333,143.6666,1.445216,0.03379678,1.53,0,-999,0,7,94.6,7.104,7.06,0.2,0,0,7.111,13.23,0.2,102.764,3.248,3.248,3.244,100,0,0,0,332.1,101.1,101.1
"2022-10-07 00:57:00",3146141,2.266,166.2667,2.93123,0.0895023,2.45,0,1.436667,140.6001,1.199819,0.06629898,1.53,0,-999,0,6.913,94.8,7.031,6.98,0.2,0,0,7.071,13.24,0.2,102.7666,3.248,3.248,3.245,100,0,0,0,332.1,101.1,101.1
"2022-10-07 00:58:00",3146142,2.272667,163.9303,3.148643,0.09398344,2.47,0,1.337333,139.3999,1.665133,0.04682828,1.42,0,-999,0,6.853,94.5,6.951,6.897,0.2,0,0,7.059,13.25,0.2,102.7602,3.248,3.25,3.248,100,0,0,0,332.1,101.1,101.1
"2022-10-07 00:59:00",3146143,2.376667,162.8666,1.74595,0.129237,2.62,0,1.282,137.1337,2.124827,0.06220396,1.38,0,-999,0,6.773,93.9,6.839,6.795,0.2,0,0,7.049,13.23,0.2,102.757,3.248,3.25,3.248,100,0,0,0,332.1,101.1,101.1
"2022-10-07 01:00:00",3146144,2.458667,161.5336,2.753448,0.1085582,2.64,0,1.391333,134.0667,1.481865,0.09611568,1.53,0,-999,0,6.7,93.5,6.755,6.734,0.2,0,0,7.035,13.24,0.2,102.7567,3.252,3.252,3.248,100,0,0,0,332.1,101.1,101.1
"2022-10-07 01:01:00",3146145,2.587333,161.8667,2.499593,0.1115626,2.79,0,1.601333,134.8002,2.343361,0.08663075,1.79,0,-999,0,6.633,93.5,6.732,6.701,0.2,0,0,7.019,13.24,0.2,102.7525,3.252,3.252,3.25,100,0,0,0,332.1,101.1,101.1
"2022-10-07 01:02:00",3146146,2.733333,163.9333,1.181159,0.06689955,2.85,0,1.7,138.7334,1.388854,0.05176871,1.78,0,-999,0,6.693,93.8,6.782,6.747,0.2,0,0,7.006,13.24,0.2,102.753,3.252,3.252,3.249,100,0,0,0,332.1,101.1,101.1
"2022-10-07 01:03:00",3146147,2.640667,163.8667,0.884397,0.04823097,2.72,0,1.695333,137.8003,2.103752,0.09193233,1.88,0,-999,0,6.687,94,6.767,6.736,0.2,0,0,6.997,13.24,0.2,102.7538,3.254,3.254,3.251,100,0,0,0,332.1,101.1,101.1
"2022-10-07 01:04:00",3146148,2.666667,166.6664,2.086834,0.09610183,2.94,0,1.686666,138.3334,1.247015,0.05962848,1.78,0,-999,0,6.6,94.2,6.723,6.67,0.2,0,0,6.976,13.23,0.2,102.7533,3.254,3.254,3.252,100,0,0,0,332.1,101.1,101.1
"2022-10-07 01:05:00",3146149,2.588,165.5999,1.925166,0.1059056,2.75,0,1.652,137.467,1.820721,0.07538346,1.79,0,-999,0,6.6,94.4,6.716,6.655,0.2,0,0,6.963,13.24,0.2,102.7509,3.254,3.256,3.254,100,0,0,0,332.1,101.1,101.1
"2022-10-07 01:06:00",3146150,2.582,167.9997,2.756365,0.09296594,2.77,0,1.661333,138,1.15468,0.04499876,1.76,0,-999,0,6.6,94.3,6.695,6.632,0.2,0,0,6.943,13.23,0.2,102.747,3.256,3.256,3.254,100,0,0,0,332.1,101.1,101.1
"2022-10-07 01:07:00",3146151,2.544,168.7288,5.480255,0.1834048,3.01,0,1.635333,138.1331,2.753377,0.08357564,1.8,0,-999,0,6.6,94.3,6.721,6.663,0.2,0,0,6.925,13.24,0.2,102.7437,3.254,3.257,3.254,100,0,0,0,332.1,101.1,101.1
"2022-10-07 01:08:00",3146152,2.595333,168.9987,3.501372,0.1317,2.93,0,1.672667,138.2668,2.080254,0.06971052,1.82,0,-999,0,6.6,94.2,6.675,6.608,0.2,0,0,6.918,13.24,0.2,102.7438,3.256,3.259,3.256,100,0,0,0,332.1,101.1,101.1
"2022-10-07 01:09:00",3146153,2.550667,168.6014,3.753936,0.1200815,2.77,0,1.747333,139.5335,1.707454,0.1033097,1.94,0,-999,0,6.587,94.3,6.668,6.609,0.2,0,0,6.905,13.25,0.2,102.7402,3.257,3.257,3.256,100,0,0,0,332.1,101.1,101.1
"2022-10-07 01:10:00",3146154,2.741333,172.932,3.640688,0.1690312,3.03,0,1.855333,139.2001,1.641211,0.07050925,1.97,0,-999,0,6.553,94.4,6.662,6.611,0.2,0,0,6.882,13.24,0.2,102.7369,3.257,3.261,3.256,100,0,0,0,332.1,101.1,101.1
"2022-10-07 01:11:00",3146155,2.866667,171.1341,3.877782,0.1917174,3.22,0,1.817333,142.6667,3.068951,0.1170451,2.09,0,-999,0,6.607,94.9,6.731,6.693,0.2,0,0,6.875,13.25,0.2,102.7352,3.261,3.261,3.257,100,0,0,0,332.1,101.1,101.1
"2022-10-07 01:12:00",3146156,2.924667,174.2003,3.467393,0.223722,3.6,0,1.744667,144.2661,2.047899,0.05524085,1.81,0,-999,0,6.673,94.9,6.776,6.756,0.2,0,0,6.852,13.24,0.2,102.7331,3.261,3.261,3.259,100,0,0,0,332.1,101.1,101.1
"2022-10-07 01:13:00",3146157,2.99,176.0682,3.801736,0.222021,3.47,0,1.695333,146.3992,3.136445,0.1410847,1.95,0,-999,0,6.7,94.9,6.812,6.773,0.2,0,0,6.832,13.23,0.2,102.7321,3.259,3.261,3.257,100,0,0,0,332.1,101.1,101.1
"2022-10-07 01:14:00",3146158,2.934,174.4664,3.094813,0.2514439,3.47,0,1.775334,147.7966,3.44648,0.1800321,2.2,0,-999,0,6.7,95,6.816,6.778,0.2,0,0,6.832,13.24,0.2,102.7336,3.261,3.261,3.256,100,0,0,0,332.1,101.1,101.1
"2022-10-07 01:15:00",3146159,2.994,174.9333,2.669681,0.2051926,3.41,0,1.666,150.1326,3.790697,0.1201,1.9,0,-999,0,6.7,94.8,6.76,6.755,0.2,0,0,6.809,13.23,0.2,102.7294,3.259,3.261,3.257,100,0,0,0,332.1,101.1,101.1
"2022-10-07 01:16:00",3146160,2.975334,172.8662,2.918025,0.1281076,3.19,0,1.605333,153.5995,3.302139,0.1159234,1.79,0,-999,0,6.76,94.7,6.81,6.802,0.2,0,0,6.791,13.25,0.2,102.7276,3.261,3.261,3.259,100,0,0,0,332.1,101.1,101.1
"2022-10-07 01:17:00",3146161,2.982667,169,1.825715,0.1581757,3.18,0,1.667333,153.7999,2.372028,0.08496797,1.82,0,-999,0,6.767,94.5,6.798,6.792,0.2,0,0,6.785,13.23,0.2,102.7264,3.259,3.261,3.256,100,0,0,0,332.1,101.1,101.1
"2022-10-07 01:18:00",3146162,3.083333,166.5332,1.667718,0.09335712,3.26,0,1.738667,152.3996,2.471055,0.1070742,1.99,0,-999,0,6.72,94.4,6.785,6.778,0.2,0,0,6.769,13.24,0.2,102.7261,3.261,3.261,3.257,100,0,0,0,332.1,101.1,101.1
"2022-10-07 01:19:00",3146163,3.105333,165.2667,1.913484,0.166688,3.5,0,1.731333,149.4004,2.303354,0.09666897,1.93,0,-999,0,6.787,94.5,6.839,6.819,0.2,0,0,6.766,13.25,0.2,102.7269,3.26,3.261,3.259,100,0,0,0,332.1,101.1,101.1
"2022-10-07 01:20:00",3146164,3.225333,164.0666,1.806036,0.09279846,3.44,0,1.845333,152.2663,2.1123,0.1366195,2.18,0,-999,0,6.787,94.5,6.813,6.806,0.2,0,0,6.745,13.23,0.2,102.7249,3.259,3.261,3.256,100,0,0,0,332.1,101.1,101.1
"2022-10-07 01:21:00",3146165,3.257333,163.3998,1.743482,0.1033097,3.44,0,1.594667,156.3995,2.550574,0.132809,1.83,0,-999,0,6.707,94.4,6.771,6.763,0.2,0,0,6.744,13.24,0.2,102.7227,3.257,3.26,3.256,100,0,0,0,332.1,101.1,101.1
"2022-10-07 01:22:00",3146166,3.298,161.4666,1.454465,0.09744743,3.49,0,1.476,152.9995,2.52967,0.117121,1.74,0,-999,0,6.7,94.4,6.746,6.763,0.2,0,0,6.744,13.22,0.2,102.7252,3.256,3.259,3.254,100,0,0,0,332.1,101.1,101.1
"2022-10-07 01:23:00",3146167,3.082667,160.2667,1.691961,0.211265,3.46,0,1.533333,154.6667,2.270203,0.08553102,1.7,0,-999,0,6.693,94.4,6.725,6.737,0.2,0,0,6.727,13.25,0.2,102.7207,3.257,3.259,3.256,100,0,0,0,332.1,101.1,101.1
"2022-10-07 01:24:00",3146168,2.962,157.7999,1.904251,0.1510497,3.21,0,1.384667,147.1985,5.587423,0.1058217,1.73,0,-999,0,6.6,94.5,6.648,6.645,0.2,0,0,6.721,13.23,0.2,102.7192,3.256,3.257,3.254,100,0,0,0,332.1,101.1,101.1
"2022-10-07 01:25:00",3146169,2.889333,158.534,2.963124,0.1526419,3.13,0,1.367333,142.6657,2.890249,0.08895441,1.54,0,-999,0,6.66,94.6,6.714,6.709,0.2,0,0,6.718,13.24,0.2,102.7169,3.254,3.256,3.254,100,0,0,0,332.1,101.1,101.1
"2022-10-07 01:26:00",3146170,2.946,160.0676,3.275003,0.1559402,3.21,0,1.358,143.1998,1.720306,0.07185171,1.46,0,-999,0,6.7,94.5,6.734,6.736,0.2,0,0,6.701,13.24,0.2,102.7179,3.255,3.255,3.252,100,0,0,0,332.1,101.1,101.1
"2022-10-07 01:27:00",3146171,2.832667,160.6658,2.467128,0.1910835,3.22,0,1.466667,144.066,2.080113,0.09227978,1.64,0,-999,0,6.7,94.5,6.754,6.748,0.2,0,0,6.701,13.22,0.2,102.7215,3.253,3.256,3.252,100,0,0,0,332.1,101.1,101.1
"2022-10-07 01:28:00",3146172,2.706666,156.9332,2.048234,0.1243472,2.93,0,1.535333,141.3334,2.573023,0.06312598,1.65,0,-999,0,6.62,94.4,6.723,6.684,0.2,0,0,6.695,13.23,0.2,102.719,3.25,3.254,3.25,100,0,0,0,332.1,101.1,101.1
"2022-10-07 01:29:00",3146173,2.74,157.7339,2.8856,0.1590388,3.01,0,1.414667,140.5332,1.820721,0.07779171,1.61,0,-999,0,6.693,94.4,6.729,6.74,0.2,0,0,6.678,13.24,0.2,102.7188,3.253,3.254,3.252,100,0,0,0,332.1,101.1,101.1
"2022-10-07 01:30:00",3146174,2.689333,156.4008,2.184594,0.08736639,2.81,0,1.398,138.5992,2.090678,0.08908423,1.64,0,-999,0,6.66,94.4,6.713,6.704,0.2,0,0,6.669,13.23,0.2,102.7128,3.25,3.254,3.25,100,0,0,0,332.1,101.1,101.1
"2022-10-07 01:31:00",3146175,2.655333,156.0671,2.23481,0.1595772,2.85,0,1.394667,139.067,1.878263,0.1139512,1.56,0,-999,0,6.6,94.3,6.683,6.66,0.2,0,0,6.656,13.25,0.2,102.7152,3.252,3.254,3.25,100,0,0,0,332.1,101.1,101.1
"2022-10-07 01:32:00",3146176,2.637333,154.9346,3.871297,0.1652258,2.95,0,1.46,141.1999,1.641091,0.08278485,1.63,0,-999,0,6.6,94.5,6.685,6.674,0.2,0,0,6.656,13.24,0.2,102.7167,3.252,3.252,3.25,100,0,0,0,332.1,101.1,101.1
"2022-10-07 01:33:00",3146177,2.718667,153.933,2.379449,0.1318518,2.9,0,1.394,140.2664,2.204764,0.1144144,1.63,0,-999,0,6.6,94.9,6.717,6.685,0.2,0,0,6.656,13.23,0.2,102.7073,3.252,3.252,3.249,100,0,0,0,332.1,101.1,101.1
"2022-10-07 01:34:00",3146178,2.825999,156.7337,2.407036,0.1066333,2.99,0,1.411333,141.6666,1.349828,0.1048724,1.61,0,-999,0,6.607,94.7,6.717,6.679,0.2,0,0,6.641,13.25,0.2,102.7092,3.25,3.252,3.249,100,0,0,0,332.1,101.1,101.1
"2022-10-07 01:35:00",3146179,2.936667,157.067,2.567763,0.1068748,3.11,0,1.451334,141.4666,1.961842,0.1312944,1.64,0,-999,0,6.6,94.7,6.681,6.659,0.2,0,0,6.635,13.24,0.2,102.7092,3.249,3.25,3.248,100,0,0,0,332.1,101.1,101.1
"2022-10-07 01:36:00",3146180,2.984667,155.6,1.254215,0.07455344,3.12,0,1.646667,140.3335,1.659716,0.1325477,1.78,0,-999,0,6.647,94.9,6.754,6.724,0.2,0,0,6.631,13.25,0.2,102.7085,3.249,3.25,3.248,100,0,0,0,332.1,101.1,101.1
"2022-10-07 01:37:00",3146181,3.184667,156.3333,2.299566,0.05953896,3.3,0,1.688,141.9993,2.828138,0.1782582,1.98,0,-999,0,6.7,94.9,6.793,6.764,0.2,0,0,6.613,13.24,0.2,102.7077,3.246,3.249,3.246,100,0,0,0,332.1,101.1,101.1
"2022-10-07 01:38:00",3146182,3.106,156.0669,2.461921,0.08593021,3.33,0,1.739333,141.4659,2.551957,0.08744266,1.9,0,-999,0,6.7,94.7,6.758,6.752,0.2,0,0,6.613,13.24,0.2,102.7008,3.246,3.248,3.246,100,0,0,0,332.1,101.1,101.1
"2022-10-07 01:39:00",3146183,3.125333,154.4673,2.801083,0.1288858,3.34,0,1.742666,142.3324,2.520436,0.1158428,1.95,0,-999,0,6.7,94.8,6.74,6.731,0.2,0,0,6.613,13.23,0.2,102.7041,3.246,3.248,3.244,100,0,0,0,332.1,101.1,101.1
"2022-10-07 01:40:00",3146184,3.157334,154.2674,2.838998,0.14045,3.31,0,1.785333,141.1991,2.736777,0.1825693,2.05,0,-999,0,6.693,94.5,6.734,6.699,0.2,0,0,6.605,13.25,0.2,102.701,3.245,3.248,3.244,100,0,0,0,332.1,101.1,101.1
"2022-10-07 01:41:00",3146185,3.158666,153.8667,1.995296,0.1876474,3.47,0,1.769333,140.3331,2.149798,0.1606432,2,0,-999,0,6.7,94.4,6.725,6.692,0.2,0,0,6.593,13.24,0.2,102.6986,3.244,3.246,3.244,100,0,0,0,332.1,101.1,101.1
"2022-10-07 01:42:00",3146186,3.134,152.0664,2.407036,0.1340547,3.37,0,1.971333,140.2666,0.9976384,0.1075711,2.15,0,-999,0,6.6,94.4,6.676,6.664,0.2,0,0,6.59,13.24,0.2,102.6983,3.242,3.244,3.242,100,0,0,0,332.1,101.1,101.1
"2022-10-07 01:43:00",3146187,3.216667,151.8,1.376253,0.1164856,3.49,0,2.074667,140.2668,1.568879,0.1474615,2.31,0,-999,0,6.673,94.6,6.738,6.729,0.2,0,0,6.59,13.23,0.2,102.698,3.243,3.244,3.239,100,0,0,0,332.1,101.1,101.1
"2022-10-07 01:44:00",3146188,3.159333,152.8669,1.856873,0.09447868,3.3,0,1.938667,140.6003,1.854499,0.1263786,2.25,0,-999,0,6.747,94.6,6.827,6.799,0.2,0,0,6.59,13.22,0.2,102.6951,3.237,3.243,3.237,100,0,0,0,332.1,101.1,101.1
"2022-10-07 01:45:00",3146189,3.098,152.0663,2.767931,0.1135019,3.32,0,1.912,142.5997,2.091053,0.1378502,2.14,0,-999,0,6.767,94.8,6.82,6.801,0.2,0,0,6.59,13.23,0.2,102.6973,3.239,3.241,3.237,100,0,0,0,332.1,101.1,101.1
"2022-10-07 01:46:00",3146190,2.989333,153.6664,2.573252,0.1628278,3.25,0,1.845333,141.3998,1.743257,0.1429623,2.08,0,-999,0,6.8,94.9,6.848,6.826,0.2,0,0,6.59,13.24,0.2,102.6951,3.237,3.241,3.237,100,0,0,0,332.1,101.1,101.1
"2022-10-07 01:47:00",3146191,3.011333,155.9331,2.953848,0.1367658,3.34,0,1.855333,142.7332,2.204675,0.1855036,2.14,0,-999,0,6.8,95,6.861,6.824,0.2,0,0,6.59,13.23,0.2,102.695,3.235,3.239,3.235,100,0,0,0,332.1,101.1,101.1